Regional Weather Roundup
Issued by NWS Jackson, KY

Home | Current Version | Previous Version | Text Only | Print | Product List | Glossary Off
Versions: 1 2 3 4 5 6 7 8 9 10 11 12 13 14 15 16 17 18 19 20 21 22 23 24 25 26 27 28

000
ASUS43 KJKL 221810
RWRJKL

EAST KENTUCKY HOURLY WEATHER ROUNDUP
NATIONAL WEATHER SERVICE JACKSON KY
200 PM EDT WED MAR 22 2017

NOTE: "FAIR" INDICATES FEW OR NO CLOUDS BELOW 12,000 FEET WITH
NO SIGNIFICANT WEATHER AND/OR OBSTRUCTIONS TO VISIBILITY.

* THESE REPORTS ARE NOT UNDER NWS QUALITY CONTROL AND MAY NOT
  REPORT WEATHER SUCH AS PRECIPITATION AND FOG.

KYZ079-080-083-085-087-088-110-112-115-119-120-221900
...EASTERN KENTUCKY...

CITY           SKY/WX    TMP DP  RH WIND       PRES   REMARKS
JACKSON        SUNNY     49  21  33 NE6       30.37S
6HR MIN TEMP:  33; 6HR MAX TEMP:  49;

LONDON         SUNNY     49  14  24 N15G21    30.34F
6HR MIN TEMP:  35; 6HR MAX TEMP:  49;

SOMERSET*      SUNNY     46  19  34 N10G18    30.38F
MONTICELLO*    SUNNY     48  20  32 N17G23    30.38F
6HR MIN TEMP:  36; 6HR MAX TEMP:  48;

WILLIAMSBURG*  CLEAR     50  19  29 NE8       30.33F
MIDDLESBORO*   MOSUNNY   53  20  27 N9        30.30F
6HR MIN TEMP:  41; 6HR MAX TEMP:  53;

HARLAN APT*    CLEAR     50  18  27 CALM      30.30F
PIKE CO APT*     N/A     42  20  41 N5G18     30.36S
BIG SANDY APT* CLEAR     45  19  36 E8        30.38F
6HR MIN TEMP:  33; 6HR MAX TEMP:  46;

MOREHEAD APT*  CLEAR     45  12  26 VRB7G15   30.43S
ASHLAND*       SUNNY     45  23  42 E8        30.44S
$$

KYZ035-036-041-042-044-050-067-078-099-221900
...CENTRAL KENTUCKY...

CITY           SKY/WX    TMP DP  RH WIND       PRES   REMARKS
MT STERLING*   SUNNY     43  19  39 NE12G20   30.43F
FLEMING/MASON* SUNNY     39  16  38 NE12G17   30.46F WCI  32
DANVILLE*      SUNNY     43  23  45 NE14G20   30.41F
LEXINGTON      SUNNY     45  14  28 NE17G26   30.42F
6HR MIN TEMP:  31; 6HR MAX TEMP:  45; 6HR PCP: TRACE;

FRANKFORT      SUNNY     46  12  25 N13G18    30.43F
6HR MIN TEMP:  33; 6HR MAX TEMP:  46;

LOUISVILLE     MOSUNNY   48  11  22 NE12      30.45F
6HR MIN TEMP:  36; 6HR MAX TEMP:  48;

LEBANON*         N/A     45  16  31 N12G18    30.42S
GLASGOW*       SUNNY     49  19  31 NE12G17   30.39F
BOWLING GREEN  SUNNY     52  16  24 NE13      30.39F
6HR MIN TEMP:  41; 6HR MAX TEMP:  52;

$$

KYZ091>093-OHZ055-061-077-WVZ005-015-034-035-042-221900
...SOUTHERN OHIO/WEST VIRGINIA...

CITY           SKY/WX    TMP DP  RH WIND       PRES   REMARKS
COVINGTON      SUNNY     39  16  39 N15G22    30.48F WCI  31
COLUMBUS       MOSUNNY   37  17  44 NE8G18    30.50F WCI  31
DAYTON         MOSUNNY   34  18  52 E9G16     30.52F WCI  27
WILMINGTON     MOSUNNY   34  22  61 NE15G22   30.49F WCI  24
HUNTINGTON     SUNNY     43  18  36 NE9       30.42F
CHARLESTON     SUNNY     42  18  37 VRB5      30.40S
PINEVILLE*     SUNNY     47  16  28 MISG      30.35F
BECKLEY        SUNNY     40  18  41 N15G23    30.29R WCI  32
BLUEFIELD      SUNNY     41  15  35 NW13G18   30.25S
LOGAN CO APT*    N/A     41  18  38 N7G17     30.34F
$$

VAZ002-007-008-TNZ017-027-036-066-071-221900
...SOUTHWEST VIRGINIA/EAST TENNESSEE...

CITY           SKY/WX    TMP DP  RH WIND       PRES   REMARKS
WISE*          SUNNY     45  19  36 N10G16    30.29R
JONESVILLE*      N/A     55  12  18 N8        30.30F
ABINGDON*      SUNNY     50  15  24 N12       30.25S
BRISTOL        MOSUNNY   54  21  27 N9G20     30.27S
MORRISTOWN*    CLEAR     55  14  19 NE10G16   30.26S
SEVIERVILLE*   CLEAR     55  23  28 VRB6      30.25F
KNOXVILLE      CLOUDY    56  20  24 N15       30.26S
LAFOLLETTE*    CLEAR     54  18  24 NE12G21   30.32F
OAK RIDGE      MOSUNNY   57  17  21 E9        30.29F
CROSSVILLE     MOSUNNY   51  19  28 NE9       30.28F
NASHVILLE      PTSUNNY   55  24  30 NE17      30.34F
$$

...KEY TO REMARKS...
VSB - VISIBILITY IN MILES
WCI - WIND CHILL INDEX
HX  - HEAT INDEX

$$




USA.gov is the U.S. government's official web portal to all federal, state and local government web resources and services.